SCP
0 0 0 0 0 0 0 0 -0 0 0 0 -0 0 0 0 -0 -0 -0 -0 0 0
0 -0 0 0 0 0 0 -0 -0 0 0 0 0 0 0 0 0 0 0 0 -0 0
0 0 -0 0 0 -0 -0 0 0 0 0 0 0 0 0 0 0 0 0 0 0 0
0 -0 -0 -0 -0 -0 0 0 0 0 0 0 0 0 0 0 0 0 0 0 0 0
0 0 0 -0 -0 0 0 0 0 0 0 0 0 0 0 0 0 0 0 0 0 0
0 0 0 0 0 0 0 0 0 0 0 0 0 0 0 0 0 0 0 0 0 0
0 -0 -0 -0 -0 0 0 0 0 0 0 0 0 0 0 0 0 0 0 0 0 0
0 -0 -0 -0 -0 0 0 0 0 0 0 0 0 0 0 0 0 0 0 0 0 0
-0 -0 -0 0 0 0 0 0 0 0 0 0 0 0 0 0 0 0 0 0 0 0
0 0 0 0 0 0 0 0 0 0 0 0 0 0 0 0 0 0 0 0 0 0
0 0 0 0 0 0 0 0 0 0 0 0 0 0 0 0 0 0 0 0 0 0
0 0 0 0 0 0 0 0 0 0 0 0 0 0 0 0 0 0 0 0 0 0
0 0 0 0 0 0 0 0 0 0 0 0 0 0 0 0 0 0 0 0 0 0
0 0 0 0 0 0 0 0 0 0 0 0 0 0 0 0 0 0 0 0 0 0
Wind_Speed_500mb
38 38 36 34 33 29 26 16 15 15 17 17 17 13 17 24 24 32 36 37 37 36
48 47 42 40 37 35 30 25 21 19 16 13 11 13 16 18 17 21 26 31 36 40
34 31 44 55 51 48 39 24 22 15 9 7 5 7 9 13 18 24 24 27 32 36
26 44 69 62 46 43 31 22 18 14 12 13 14 17 21 24 26 28 30 32 36 36
64 81 85 79 49 38 26 22 19 19 19 20 25 29 32 33 34 34 36 39 41 42
24 42 81 50 29 28 26 18 19 22 29 31 33 37 40 40 39 37 39 40 39 34
21 35 59 44 32 25 19 18 21 28 32 32 34 34 35 35 40 45 46 48 48 47
20 26 24 17 19 17 20 21 25 29 36 38 40 40 44 46 49 54 56 56 53 55
22 22 23 28 22 24 28 32 34 38 40 42 44 46 49 51 58 62 66 67 63 56
18 20 26 29 33 38 40 42 45 47 48 50 53 55 58 61 67 69 73 68 64 59
27 29 31 33 37 40 43 47 49 51 54 57 60 64 69 72 75 75 72 63 59 62
25 31 36 41 44 48 52 55 58 62 65 69 75 78 78 76 75 75 72 64 56 56
32 38 43 48 53 56 60 66 70 76 77 80 81 79 75 68 68 69 68 67 65 59
31 33 36 38 41 45 50 55 58 64 62 63 65 68 62 59 63 63 62 63 62 53
Wind_Direction_500mb
255 250 250 258 269 273 273 276 269 275 285 275 293 288 260 257 259 259 268 270 269 268
248 261 259 255 261 261 266 271 258 256 246 262 267 274 265 266 276 265 267 275 277 275
260 249 293 269 259 266 263 264 250 239 224 237 258 295 304 304 301 296 293 286 286 291
274 266 312 272 269 268 261 259 225 208 231 264 284 293 297 299 298 293 289 289 292 290
263 263 289 260 261 257 247 227 229 246 267 279 286 286 284 286 289 288 288 287 288 291
344 225 220 259 249 232 224 228 253 275 282 286 288 289 287 289 291 291 290 291 288 280
93 163 205 246 223 218 230 251 275 285 293 299 307 305 297 296 299 303 301 294 285 277
131 182 203 190 226 233 251 274 288 289 296 297 299 300 296 298 303 303 303 299 285 275
127 171 203 223 242 264 277 282 286 286 285 283 282 284 286 292 298 302 301 298 288 275
195 222 238 253 263 269 268 262 258 261 265 268 273 276 280 288 295 298 299 293 281 277
220 229 239 248 255 260 262 263 265 263 265 269 273 277 282 287 292 294 294 286 282 278
256 265 270 274 275 275 273 273 273 275 278 278 280 283 286 289 289 287 283 283 282 281
278 281 282 282 282 282 285 285 284 284 282 284 287 286 289 288 283 282 282 281 280 279
291 295 295 296 298 301 298 295 294 292 293 292 293 291 289 281 276 281 284 281 282 280
Wind_Speed_850mb
38 38 36 34 33 29 26 16 15 15 17 17 17 13 17 24 24 32 36 37 37 36
48 47 42 40 37 35 30 25 21 19 16 13 11 13 16 18 17 21 26 31 36 40
34 31 44 55 51 48 39 24 22 15 9 7 5 7 9 13 18 24 24 27 32 36
26 44 69 62 46 43 31 22 18 14 12 13 14 17 21 24 26 28 30 32 36 36
64 81 85 79 49 38 26 22 19 19 19 20 25 29 32 33 34 34 36 39 41 42
24 42 81 50 29 28 26 18 19 22 29 31 33 37 40 40 39 37 39 40 39 34
21 35 59 44 32 25 19 18 21 28 32 32 34 34 35 35 40 45 46 48 48 47
20 26 24 17 19 17 20 21 25 29 36 38 40 40 44 46 49 54 56 56 53 55
22 22 23 28 22 24 28 32 34 38 40 42 44 46 49 51 58 62 66 67 63 56
18 20 26 29 33 38 40 42 45 47 48 50 53 55 58 61 67 69 73 68 64 59
27 29 31 33 37 40 43 47 49 51 54 57 60 64 69 72 75 75 72 63 59 62
25 31 36 41 44 48 52 55 58 62 65 69 75 78 78 76 75 75 72 64 56 56
32 38 43 48 53 56 60 66 70 76 77 80 81 79 75 68 68 69 68 67 65 59
31 33 36 38 41 45 50 55 58 64 62 63 65 68 62 59 63 63 62 63 62 53
Wind_Direction_850mb
255 250 250 258 269 273 273 276 269 275 285 275 293 288 260 257 259 259 268 270 269 268
248 261 259 255 261 261 266 271 258 256 246 262 267 274 265 266 276 265 267 275 277 275
260 249 293 269 259 266 263 264 250 239 224 237 258 295 304 304 301 296 293 286 286 291
274 266 312 272 269 268 261 259 225 208 231 264 284 293 297 299 298 293 289 289 292 290
263 263 289 260 261 257 247 227 229 246 267 279 286 286 284 286 289 288 288 287 288 291
344 225 220 259 249 232 224 228 253 275 282 286 288 289 287 289 291 291 290 291 288 280
93 163 205 246 223 218 230 251 275 285 293 299 307 305 297 296 299 303 301 294 285 277
131 182 203 190 226 233 251 274 288 289 296 297 299 300 296 298 303 303 303 299 285 275
127 171 203 223 242 264 277 282 286 286 285 283 282 284 286 292 298 302 301 298 288 275
195 222 238 253 263 269 268 262 258 261 265 268 273 276 280 288 295 298 299 293 281 277
220 229 239 248 255 260 262 263 265 263 265 269 273 277 282 287 292 294 294 286 282 278
256 265 270 274 275 275 273 273 273 275 278 278 280 283 286 289 289 287 283 283 282 281
278 281 282 282 282 282 285 285 284 284 282 284 287 286 289 288 283 282 282 281 280 279
291 295 295 296 298 301 298 295 294 292 293 292 293 291 289 281 276 281 284 281 282 280